RH
7 7 7 7 7 7 7 7 8 9 10 11 11 12 11 11 11 11 9 8 8 7 5 5 5 5 6 8 9 11 13 16 18 18 17 21 27 36 46 54 67 70 73 72 71 69 71 72 76 86 91 96 91 84
8 10 10 10 10 9 9 9 9 8 8 9 9 10 13 13 12 12 10 9 9 8 7 7 6 6 7 7 9 10 12 14 17 21 22 22 24 25 26 33 38 42 47 45 45 49 52 56 60 70 75 76 74 79
10 11 12 11 10 9 8 8 8 8 10 12 12 13 17 19 15 12 13 11 12 10 9 9 8 7 8 9 9 10 11 13 16 19 20 24 26 25 28 30 30 33 34 38 37 40 38 35 35 36 41 45 45 42
14 12 10 9 8 8 8 9 9 9 9 10 12 13 18 24 23 13 13 12 14 13 11 10 10 11 10 11 11 12 12 12 15 18 21 24 29 28 31 34 36 35 35 36 36 39 33 28 29 31 32 34 35 35
11 8 7 6 5 4 4 4 4 4 5 6 7 10 12 22 31 20 13 12 14 16 12 12 11 11 12 13 14 14 14 15 16 20 23 25 27 27 28 31 34 34 35 34 35 35 32 28 26 29 26 24 25 25
6 5 5 6 5 5 5 5 4 4 4 4 4 6 8 15 28 29 20 13 15 17 15 14 13 13 14 14 14 14 14 14 15 18 21 24 27 29 31 32 32 32 30 30 29 30 28 26 21 18 18 18 18 18
6 7 7 6 5 5 5 5 5 5 4 4 3 4 6 10 23 38 46 29 17 17 18 17 17 18 17 16 16 15 15 16 16 18 22 26 27 27 31 31 31 30 28 27 28 25 22 22 23 20 17 16 15 15
6 6 5 4 4 4 4 5 5 6 6 5 4 4 4 7 13 31 37 30 24 16 15 16 18 18 20 21 20 18 19 20 19 18 21 27 27 26 33 35 34 31 30 29 28 27 27 27 28 26 21 17 14 12
6 6 5 4 4 3 4 4 4 5 6 6 6 4 4 4 7 16 28 28 24 24 22 18 18 19 20 19 20 21 20 21 20 22 24 23 26 28 33 34 35 30 28 26 25 25 24 24 21 20 18 18 17 21
5 4 4 4 3 3 3 3 3 4 5 6 6 6 5 5 5 6 13 23 21 28 35 26 24 26 29 31 28 24 24 25 24 23 22 24 26 32 37 41 44 45 36 28 26 30 30 29 21 16 11 13 18 15
5 4 4 4 3 3 3 3 3 3 4 4 5 6 7 7 6 5 6 8 14 22 34 42 41 41 39 40 37 40 36 35 32 30 27 26 27 28 29 34 40 40 38 35 32 28 26 24 20 16 12 12 11 10
5 4 4 4 3 3 3 4 3 4 4 4 4 5 8 9 9 9 9 9 9 10 18 26 40 52 58 58 47 34 28 25 24 21 15 16 14 10 10 12 13 15 17 18 18 18 16 14 13 12 10 9 9 10
6 5 4 4 4 3 4 4 4 4 4 4 4 5 6 8 8 10 9 8 9 11 13 15 17 20 24 29 28 25 24 20 15 14 14 13 14 14 12 11 8 8 7 6 7 7 8 7 7 7 8 9 9 10
8 6 6 5 4 4 4 4 4 4 4 4 4 4 5 6 6 8 9 10 11 10 11 12 13 14 15 15 14 13 14 13 13 13 12 11 10 9 9 8 8 8 8 8 8 8 7 7 7 8 9 10 12 12
11 8 7 6 6 5 5 5 5 5 4 5 5 5 6 6 7 8 9 10 11 12 12 13 13 13 13 14 15 15 14 14 13 12 10 10 9 9 9 9 8 9 9 10 10 10 10 10 10 11 12 13 16 16
16 11 9 8 7 6 6 6 6 6 6 6 7 7 7 8 8 9 10 12 14 15 16 17 17 17 16 17 17 16 15 14 13 16 16 16 15 14 12 14 14 15 16 15 14 14 16 18 19 19 18 19 19 19
20 17 12 10 9 8 7 7 7 8 8 8 9 9 10 10 10 10 11 13 14 18 20 22 24 26 29 31 36 35 37 31 37 34 29 28 30 29 29 26 22 19 20 21 23 23 22 23 21 18 18 17 17 18
20 20 19 16 14 14 13 12 11 11 12 12 13 14 15 16 17 20 24 29 34 38 43 48 49 50 56 55 55 57 54 51 54 54 54 53 54 52 48 43 40 40 39 39 38 36 37 35 35 37 36 35 34 32
22 25 27 25 22 20 20 22 24 26 27 30 30 34 39 46 50 53 56 61 68 72 70 70 73 79 80 75 69 63 55 55 58 62 63 59 55 49 44 40 36 34 32 32 32 31 30 28 28 28 28 27 25 23
26 28 33 35 34 34 38 43 48 50 56 64 71 69 66 61 56 62 70 77 82 86 83 84 85 87 85 81 77 76 76 74 68 60 53 49 45 40 37 35 35 36 38 38 37 36 35 33 30 26 23 20 18 17
29 32 41 46 47 39 44 65 78 79 75 62 60 60 68 89 94 96 93 92 86 89 88 88 91 98 96 94 90 88 83 76 69 61 54 46 38 33 34 35 34 32 31 29 25 22 20 16 13 12 11 10 10 10
42 46 46 44 51 64 64 63 56 65 73 87 97 92 86 92 97 96 99 100 99 96 94 94 95 95 92 88 80 69 60 54 46 40 40 38 35 32 27 23 19 16 14 12 11 10 9 8 7 6 6 6 5 5
50 48 56 70 76 71 68 74 70 75 84 84 82 84 88 88 86 78 86 92 95 89 76 72 70 67 61 55 49 42 42 36 30 27 24 20 16 13 10 9 8 7 6 6 6 5 5 5 5 5 4 4 4 4
89 77 66 63 81 87 77 74 73 76 80 82 82 83 79 83 87 86 78 75 65 68 70 69 64 61 60 54 41 40 30 26 22 19 14 10 7 6 6 5 5 4 4 4 4 3 3 3 3 3 3 3 3 3
92 80 76 70 77 77 78 78 77 76 76 79 80 80 82 78 76 73 73 81 82 76 76 82 86 85 75 61 50 39 23 19 13 8 7 6 5 4 4 3 3 3 3 3 3 3 3 3 3 3 3 3 3 3
64 74 80 79 80 79 78 79 82 86 86 86 87 88 83 84 88 94 95 96 95 97 98 96 93 89 67 49 37 18 15 11 7 6 5 5 4 4 3 3 3 3 3 3 4 3 3 3 3 3 3 3 3 3
76 74 76 78 82 88 91 96 100 100 100 98 97 96 97 99 98 99 100 99 98 95 92 87 79 65 44 30 18 16 10 7 5 5 5 4 4 4 4 4 3 3 3 3 3 3 2 2 2 2 2 2 2 2
76 78 85 91 96 100 100 100 100 99 94 90 92 97 99 99 99 99 97 92 90 90 87 73 57 40 26 18 14 8 5 5 5 5 5 4 4 4 4 3 3 3 2 2 2 2 2 2 2 2 2 2 2 2
100 99 100 100 100 99 97 96 97 96 91 94 100 100 100 98 94 94 92 92 90 80 72 54 36 21 15 11 7 5 5 5 4 4 4 4 4 3 3 2 2 2 2 2 2 2 2 2 2 2 2 2 2 2
97 97 96 96 95 96 96 93 92 92 91 92 96 96 94 97 92 86 88 83 73 63 41 26 17 13 9 7 5 5 4 4 4 4 4 3 3 2 2 2 2 2 2 2 2 2 2 2 2 2 2 2 2 1
100 100 96 92 91 91 91 90 90 89 91 95 96 97 93 90 86 79 73 61 46 30 21 15 11 8 6 5 5 4 4 4 4 3 3 2 2 2 2 2 2 2 2 2 2 2 2 2 2 2 1 1 1 1
92 87 85 86 87 87 87 86 87 88 92 89 81 79 80 79 72 61 45 33 24 18 13 10 7 6 5 4 4 4 4 4 3 3 2 2 2 2 2 2 2 2 2 2 2 2 2 2 2 2 2 2 2 2
88 84 85 86 81 80 84 83 80 76 71 67 63 64 62 50 40 32 26 19 14 10 8 6 6 5 4 4 4 4 3 3 2 2 2 2 2 2 2 2 2 2 2 2 2 2 2 2 2 2 2 2 2 2
Wind_Speed
26 25 25 25 26 27 27 28 28 28 28 28 28 27 28 28 28 28 30 31 35 37 36 41 43 46 49 54 56 58 61 62 59 57 61 67 67 70 73 76 77 76 75 75 78 80 83 86 90 96 97 97 97 97
26 25 25 25 26 27 27 28 28 28 29 29 28 26 27 27 28 29 29 28 29 31 36 38 39 43 46 51 53 57 59 59 56 57 59 62 67 68 69 69 69 69 72 75 74 77 79 82 85 87 89 92 93 94
24 25 27 28 29 28 29 29 29 29 29 28 28 27 27 27 28 29 28 28 29 30 33 34 38 41 42 46 51 52 54 54 54 56 57 56 59 62 64 66 68 68 70 70 71 72 75 75 76 79 83 86 88 88
25 28 28 28 25 24 25 26 28 28 28 28 28 27 28 29 29 30 30 30 30 32 34 35 34 36 40 45 47 47 46 47 47 51 54 54 56 57 60 62 61 63 63 66 65 68 69 71 70 73 75 78 81 83
27 27 25 25 25 25 25 26 27 28 28 30 29 30 29 31 31 32 31 32 30 32 35 35 36 37 40 43 45 46 46 48 46 47 48 53 54 57 59 60 61 62 62 62 64 65 67 68 67 71 72 74 76 78
25 23 21 21 23 23 23 23 24 25 25 27 29 32 30 31 35 33 29 28 28 32 33 35 37 37 39 40 41 42 45 45 44 44 48 49 54 55 57 59 61 61 60 60 60 63 64 66 69 69 71 72 73 75
20 18 18 19 18 17 18 19 20 22 24 26 29 30 30 32 39 35 32 35 34 34 35 35 35 36 36 36 37 38 40 41 42 41 44 49 52 53 54 55 55 58 58 58 59 61 61 64 67 68 67 68 68 70
13 11 14 12 11 12 12 13 16 19 21 23 27 29 30 33 37 41 40 36 33 33 33 34 35 36 38 38 37 37 38 38 38 41 45 48 52 51 48 50 54 56 58 59 61 61 62 64 64 67 66 66 66 65
10 9 10 10 8 6 8 10 13 16 19 21 22 26 28 31 35 42 42 38 35 30 29 31 33 33 35 34 33 34 35 36 39 42 44 46 48 46 48 53 54 57 58 58 58 57 58 59 60 62 60 58 54 54
2 1 2 3 4 5 6 9 13 17 20 22 22 23 25 26 30 34 40 41 34 29 30 27 25 28 28 28 29 29 31 32 34 36 38 38 41 43 46 50 53 54 55 55 53 51 53 55 55 57 51 47 47 50
5 6 6 6 7 10 12 13 13 15 18 19 21 22 22 24 24 26 30 31 34 33 33 32 30 28 28 27 26 27 27 29 30 32 34 35 36 41 46 50 53 55 55 56 56 56 56 56 55 56 50 48 53 49
10 11 11 11 12 14 17 15 13 14 15 17 20 22 24 24 26 28 30 30 30 30 30 32 32 32 31 31 31 30 31 31 31 34 35 33 37 36 39 42 45 47 51 54 56 58 57 55 53 53 52 50 47 47
14 14 15 16 16 17 19 19 19 16 15 16 20 23 24 25 27 29 31 32 31 29 29 30 30 30 31 32 32 33 33 33 33 34 35 34 34 34 35 35 35 36 39 41 42 44 45 47 47 47 48 47 45 44
19 18 18 18 18 19 21 20 19 20 20 18 17 20 21 24 23 25 26 27 28 27 26 26 25 25 24 23 23 22 21 23 25 25 25 25 26 25 25 26 28 29 30 30 32 33 35 37 38 40 41 42 42 43
22 22 22 20 20 21 23 21 21 22 22 22 22 23 23 23 23 22 21 22 22 21 22 21 20 17 15 15 15 15 15 16 18 20 21 21 20 20 22 23 24 23 22 21 22 25 28 31 34 37 39 41 40 41
24 24 25 27 25 24 27 27 26 25 25 26 26 25 24 24 24 24 23 23 21 20 20 19 18 17 15 13 13 13 14 14 15 13 14 14 17 18 18 18 19 19 22 25 27 28 29 29 31 34 37 39 41 44
26 26 27 29 30 29 29 30 30 29 28 28 28 28 28 27 27 25 25 24 22 21 20 19 19 18 16 15 14 12 12 11 12 13 14 15 15 16 18 20 22 24 25 27 28 30 32 34 36 37 39 42 45 47
26 28 29 29 31 34 34 34 35 35 35 35 35 33 32 31 30 29 27 26 25 24 23 23 21 20 17 15 15 12 12 13 12 12 13 14 16 18 20 23 25 27 29 31 33 35 37 39 40 43 44 46 48 50
27 28 29 29 30 32 32 34 35 34 34 33 33 32 32 32 31 31 31 29 28 27 25 22 19 17 14 10 7 5 5 6 8 10 13 15 18 20 23 25 27 29 31 32 34 36 37 39 41 42 44 45 46 47
30 29 29 29 30 30 33 33 33 33 33 33 32 32 31 30 30 32 31 29 27 24 20 17 13 10 6 3 3 5 7 10 13 16 19 21 24 27 29 30 32 33 35 37 40 42 44 45 46 47 47 48 49 50
33 32 32 32 31 33 36 37 35 33 33 33 33 32 34 35 32 28 23 19 17 15 11 8 6 4 6 9 12 15 18 21 24 27 30 32 34 36 37 37 38 39 40 42 44 46 47 48 49 50 51 52 52 53
38 36 36 37 40 39 36 33 31 34 32 32 30 28 28 26 23 19 16 14 10 8 6 5 6 10 13 17 20 23 26 29 32 34 36 37 36 36 36 38 40 42 44 45 47 49 50 50 51 51 51 51 51 52
37 36 37 38 37 31 30 30 29 30 30 25 23 21 20 17 15 11 10 8 6 4 7 11 15 19 22 25 28 30 32 33 38 38 38 37 37 37 37 39 40 42 43 44 45 46 46 46 46 46 47 47 47 47
32 30 26 27 31 29 24 22 20 21 20 17 15 14 12 10 9 9 9 7 10 17 21 24 26 30 34 37 38 40 41 42 42 40 38 36 35 35 36 36 37 37 38 38 39 39 40 41 41 42 42 43 43 44
32 27 24 23 24 22 20 17 15 14 14 13 12 10 11 11 13 16 19 23 26 28 31 35 40 43 45 47 48 49 46 44 40 37 36 36 36 35 34 34 34 34 35 36 36 37 37 37 38 39 40 41 42 42
27 25 23 18 18 16 14 13 13 13 12 11 11 12 13 17 20 24 26 29 33 37 40 43 46 49 50 51 51 47 44 41 38 36 34 35 34 34 34 34 34 33 33 33 34 35 36 36 37 38 38 39 39 40
19 16 13 12 10 10 10 10 9 9 9 10 13 15 19 22 25 27 30 34 37 40 43 47 50 52 53 51 48 46 44 40 37 35 34 35 35 33 34 33 33 32 33 33 33 34 34 35 35 36 37 37 38 39
11 9 6 4 3 3 4 5 7 9 11 13 16 20 22 24 27 30 34 38 41 44 48 51 52 52 52 49 47 44 41 37 35 34 33 34 34 32 32 32 33 33 33 33 34 34 35 35 35 35 36 37 37 38
6 5 6 6 7 8 9 10 12 15 18 20 22 25 27 30 34 37 40 43 47 49 52 53 53 51 47 46 44 42 39 36 35 33 32 32 32 32 31 32 32 33 34 34 34 35 35 35 35 36 36 35 35 35
10 10 11 12 13 14 15 17 18 19 21 24 26 29 32 35 38 41 45 48 51 53 53 52 50 46 45 44 42 40 38 36 34 32 32 32 33 33 34 34 34 34 34 34 34 34 34 34 34 33 33 33 33 33
12 14 15 16 17 18 18 19 21 23 26 29 31 33 36 39 42 45 49 51 51 51 51 49 45 44 43 42 41 38 35 35 35 35 34 34 34 35 35 35 35 34 34 34 33 33 32 32 32 32 32 33 33 33
15 16 16 17 19 20 21 22 25 28 30 32 34 36 40 43 45 47 48 50 50 49 46 43 43 42 41 39 38 36 34 34 34 35 36 37 37 36 35 34 33 33 32 31 31 31 31 32 32 33 33 34 34 34
21 21 21 21 23 24 26 27 29 31 32 33 35 38 41 43 45 47 48 48 46 43 41 41 40 40 39 37 35 35 35 35 35 36 36 36 36 36 35 34 33 32 31 31 31 32 32 33 33 33 33 33 33 33
Wind_Direction
270 268 266 262 258 254 251 248 244 241 240 236 231 230 232 233 234 232 230 228 229 228 224 222 222 219 217 215 216 218 221 222 219 218 219 220 222 225 227 230 232 234 236 236 237 238 239 241 242 243 245 245 247 250
273 272 270 266 262 258 254 249 246 242 239 235 229 224 225 227 226 226 226 226 227 222 220 219 218 216 215 215 216 218 219 222 220 218 220 221 223 226 229 231 234 236 238 240 241 241 242 242 242 244 246 248 248 250
276 272 267 264 261 258 255 252 248 243 241 239 234 224 220 222 225 221 221 219 220 215 216 216 214 213 213 214 217 219 222 222 221 221 222 222 225 227 230 233 235 237 239 241 243 244 245 247 247 247 248 250 252 252
272 271 270 270 271 266 259 252 248 244 241 238 234 227 216 217 223 221 216 214 213 214 213 211 210 208 210 211 215 219 222 223 221 221 223 224 226 228 231 233 235 237 238 240 243 245 246 246 247 249 250 251 252 254
279 281 283 277 268 262 255 248 241 236 233 230 228 224 215 208 214 223 216 213 209 212 212 210 210 208 209 211 214 217 218 221 220 221 222 225 227 230 231 234 237 239 241 242 244 247 250 251 250 250 251 251 252 255
292 283 278 268 258 252 250 246 242 237 230 222 218 217 210 198 205 222 218 218 210 215 216 211 212 211 212 213 216 217 221 221 219 216 223 225 229 231 234 236 239 241 243 244 247 249 250 252 252 251 252 254 255 255
285 283 272 263 261 252 244 240 235 230 225 219 213 210 203 192 196 207 212 217 211 207 210 213 214 214 216 217 217 218 221 222 223 220 222 227 231 233 235 240 243 246 247 246 246 247 248 250 253 255 254 255 257 257
286 282 272 272 266 255 242 229 222 216 213 211 210 206 201 195 192 196 211 216 216 212 208 209 210 213 216 218 218 218 221 221 223 221 222 224 229 230 233 237 239 242 244 245 245 246 248 249 250 253 255 255 256 259
297 278 269 267 261 240 213 206 202 199 199 200 202 202 199 192 189 194 205 214 217 216 213 211 213 218 220 221 220 220 221 222 222 225 225 227 230 233 234 238 239 241 243 243 244 244 247 250 251 253 256 258 262 265
296 264 245 219 189 180 173 175 177 181 186 188 189 191 191 191 191 190 196 206 217 211 215 220 219 222 224 224 226 226 226 227 226 230 231 229 230 229 231 236 241 244 247 251 253 252 253 255 260 263 264 264 263 260
85 98 104 121 142 152 149 153 163 167 174 178 178 177 174 178 181 177 179 188 202 210 216 222 227 226 231 231 230 234 234 235 233 235 236 232 230 231 231 233 235 240 245 250 253 254 255 257 260 262 264 258 257 258
91 96 101 108 125 131 131 128 133 146 158 163 161 159 166 169 168 170 174 180 185 183 192 204 218 228 236 245 245 245 245 244 247 246 245 246 246 243 241 241 242 244 246 249 252 254 256 259 260 259 257 256 256 256
86 87 91 100 109 119 121 120 121 125 135 145 152 155 160 167 169 173 176 180 183 186 187 191 197 204 211 221 229 237 244 250 256 260 265 265 266 263 260 258 255 250 250 254 257 256 255 255 256 257 255 254 253 253
90 90 90 95 99 108 111 111 115 121 123 125 136 148 157 165 170 171 170 172 176 179 184 188 193 202 209 215 222 230 231 231 232 236 240 242 244 247 247 247 249 248 248 249 250 248 249 251 250 251 250 251 249 250
93 96 97 98 104 108 107 109 114 119 125 130 133 138 143 146 151 157 160 164 167 171 173 177 183 187 194 200 206 213 218 223 226 231 233 234 237 238 238 237 237 235 235 239 247 251 251 250 250 248 248 248 248 251
99 99 101 101 100 106 109 108 108 110 114 118 120 125 129 133 136 138 139 141 145 151 152 155 159 164 172 176 187 202 210 212 214 217 224 230 235 237 234 239 246 248 248 249 245 242 241 243 247 251 253 254 256 256
105 103 102 102 102 100 101 104 104 105 107 111 113 116 120 122 124 126 128 127 127 130 133 138 143 149 153 165 178 186 200 211 213 220 229 234 236 241 246 251 254 256 258 261 262 262 260 260 259 260 261 262 263 264
109 108 108 107 107 108 107 106 107 109 107 106 107 108 108 109 112 115 120 125 130 136 139 144 149 152 158 166 180 181 191 203 210 217 225 232 239 244 249 252 255 259 260 262 263 265 267 268 269 269 269 269 269 269
113 112 110 109 109 109 107 105 104 106 109 112 115 116 117 120 125 129 133 133 132 132 131 129 128 128 128 134 147 171 195 218 237 249 256 263 266 267 269 270 271 272 272 272 272 271 271 271 272 272 271 272 272 272
115 113 110 109 108 108 110 112 114 115 116 118 120 123 127 127 125 120 118 116 114 113 113 116 118 121 116 96 4 322 307 297 291 289 287 288 288 287 286 285 286 285 286 286 285 284 281 279 277 275 274 272 271 271
114 112 111 111 112 110 109 108 111 117 122 120 119 118 116 114 113 114 116 115 114 110 102 92 71 33 350 325 315 309 304 301 302 302 301 299 297 297 298 297 294 289 284 279 275 272 271 271 272 272 273 273 273 274
110 111 110 110 108 106 109 113 115 113 110 108 111 114 108 104 105 107 106 92 84 73 56 17 336 321 315 310 306 303 303 302 302 302 306 306 303 296 288 284 280 278 275 274 274 275 276 278 279 280 280 280 280 280
105 107 109 112 112 114 116 121 118 115 110 109 108 103 100 99 98 100 79 64 40 3 338 333 328 323 318 314 310 311 312 313 319 319 315 307 299 292 287 284 282 280 279 279 280 280 281 282 282 282 282 282 283 283
114 119 121 121 119 118 125 118 120 111 107 104 101 91 86 74 61 43 20 2 346 351 347 338 331 327 327 325 325 323 324 325 322 316 308 301 297 294 292 290 288 287 286 286 285 285 285 285 285 284 284 283 284 283
129 133 131 127 124 122 117 111 105 97 87 79 73 64 49 35 17 8 0 354 349 341 339 336 333 330 325 323 322 323 325 322 315 310 307 305 302 299 298 295 294 292 291 289 288 287 287 287 286 286 286 286 286 286
130 131 132 127 114 108 103 90 76 68 60 47 34 22 12 5 358 351 345 340 334 334 332 329 326 322 320 321 325 327 321 316 316 315 311 306 304 303 300 298 298 296 294 292 291 290 290 289 288 287 287 287 287 287
132 129 121 113 98 83 70 56 40 22 9 3 0 356 351 346 340 335 333 328 326 325 324 322 321 320 321 324 325 321 318 318 319 316 311 308 306 306 304 303 302 300 299 298 297 295 294 294 292 292 291 291 290 290
139 134 118 99 63 39 354 336 330 327 328 334 335 334 331 327 326 323 322 322 322 321 320 319 319 319 322 324 320 318 319 321 319 316 313 311 310 310 309 307 306 305 303 302 300 299 299 298 297 297 296 296 295 295
203 221 241 255 265 276 285 297 305 310 318 322 320 319 319 320 320 320 320 320 319 319 318 317 318 321 323 320 319 321 322 322 319 318 316 315 314 313 312 310 308 307 305 305 304 304 303 302 301 300 299 299 298 298
220 234 246 259 269 278 284 289 296 303 307 309 309 312 317 318 318 318 319 317 317 316 316 317 320 323 319 319 321 323 323 321 320 320 321 320 318 318 316 314 312 311 310 308 307 305 304 303 302 301 300 301 301 301
247 249 253 261 270 278 284 292 298 302 303 305 310 314 315 315 316 316 314 314 314 314 316 319 320 318 318 319 321 322 322 322 323 323 323 322 321 320 318 317 315 313 311 310 308 307 306 305 304 304 304 304 304 304
258 263 268 273 279 284 290 295 298 301 304 308 312 313 315 314 314 312 312 312 314 316 318 318 316 317 318 320 322 322 323 324 324 324 325 324 323 321 320 318 317 315 314 312 312 311 310 309 309 309 308 307 307 305
267 270 275 279 283 287 291 295 298 300 305 308 312 314 313 312 312 312 312 313 315 317 317 316 316 318 320 323 324 324 325 325 326 326 326 324 323 322 321 320 319 317 315 314 313 313 312 312 312 311 309 309 308 308